Location: Powder Track
(41.8531°N, 72.3584°W)
Time: 10:38:06
(UTC+00:00)

Courier 1B - All Passes

Search period start: 03 August 2021 00:00
Search period end: 13 August 2021 00:00
Orbit: 962 x 1209 km, 28.3° (Epoch: 02 August)

Date Brightness Start Highest point End Pass type
(mag) Time Alt. Az. Time Alt. Az. Time Alt. Az.
03 Aug - 01:03:23 10° WSW 01:09:54 29° S 01:16:15 10° SE visible
03 Aug - 02:57:33 10° WSW 03:03:13 22° SSW 03:08:41 10° SSE visible
03 Aug - 22:17:20 10° SSW 22:22:49 21° SSE 22:28:18 10° ESE daylight
04 Aug - 00:09:38 10° SW 00:16:10 29° S 00:22:35 10° ESE daylight
04 Aug - 02:03:26 10° WSW 02:09:33 26° SSW 02:15:30 10° SE visible
04 Aug - 03:59:21 10° SW 04:02:38 13° SSW 04:05:51 10° S visible
04 Aug - 21:24:24 10° SSW 21:29:10 17° SSE 21:33:57 10° ESE daylight
04 Aug - 23:16:01 10° SW 23:22:26 28° S 23:28:49 10° ESE daylight
05 Aug - 01:09:27 10° WSW 01:15:51 28° S 01:22:07 10° SE visible
05 Aug - 03:04:26 10° WSW 03:09:03 17° SSW 03:13:34 10° SSE visible
05 Aug - 20:31:58 10° S 20:35:32 14° SSE 20:39:09 10° SE daylight
05 Aug - 22:22:32 10° SW 22:28:41 26° SSE 22:34:53 10° ESE daylight
06 Aug - 00:15:34 10° WSW 00:22:07 29° S 00:28:35 10° SE daylight
06 Aug - 02:10:00 10° WSW 02:15:26 21° SSW 02:20:45 10° SSE visible
06 Aug - 19:41:25 10° SSE 19:41:57 10° SSE 19:42:30 10° SSE daylight
06 Aug - 21:29:14 10° SSW 21:35:00 23° SSE 21:40:50 10° ESE daylight
06 Aug - 23:21:49 10° WSW 23:28:22 30° S 23:34:55 10° ESE daylight
07 Aug - 01:15:47 10° WSW 01:21:45 24° SSW 01:27:37 10° SE visible
07 Aug - 03:12:49 10° SW 03:14:49 11° SSW 03:16:48 10° SSW visible
07 Aug - 20:36:10 10° SSW 20:41:19 20° SSE 20:46:35 10° ESE daylight
07 Aug - 22:28:10 10° SW 22:34:37 29° S 22:41:08 10° ESE daylight
08 Aug - 00:21:46 10° WSW 00:28:03 27° S 00:34:16 10° SE visible
08 Aug - 02:17:14 10° SW 02:21:13 15° SSW 02:25:11 10° S visible
08 Aug - 19:43:27 10° SSW 19:47:42 16° SSE 19:52:03 10° ESE daylight
08 Aug - 21:34:40 10° SW 21:40:53 27° S 21:47:13 10° ESE daylight
08 Aug - 23:27:53 10° WSW 23:34:18 28° S 23:40:45 10° SE daylight
09 Aug - 01:22:35 10° WSW 01:27:36 18° SSW 01:32:35 10° SSE visible
09 Aug - 18:51:25 10° S 18:54:08 12° SSE 18:56:54 10° SE daylight
09 Aug - 20:41:20 10° SW 20:47:11 25° SSE 20:53:13 10° ESE daylight
09 Aug - 22:34:07 10° WSW 22:40:34 29° S 22:47:06 10° SE daylight
10 Aug - 00:28:17 10° WSW 00:33:55 22° SSW 00:39:34 10° SSE visible
10 Aug - 19:48:11 10° SSW 19:53:32 22° SSE 19:59:03 10° ESE daylight
10 Aug - 21:40:29 10° SW 21:46:49 29° S 21:53:20 10° ESE daylight
10 Aug - 23:34:14 10° WSW 23:40:13 25° SSW 23:46:16 10° SE daylight
11 Aug - 01:30:29 10° SW 01:33:22 12° SSW 01:36:15 10° S visible
11 Aug - 18:55:19 10° SSW 18:59:56 18° SSE 19:04:41 10° ESE daylight
11 Aug - 20:46:59 10° SW 20:53:06 28° S 20:59:27 10° ESE daylight
11 Aug - 22:40:20 10° WSW 22:46:30 27° S 22:52:48 10° SE daylight
12 Aug - 00:35:26 10° WSW 00:39:45 16° SSW 00:44:05 10° S visible
12 Aug - 18:02:52 10° S 18:06:22 14° SSE 18:09:58 10° SE daylight
12 Aug - 19:53:37 10° SW 19:59:25 26° S 20:05:29 10° ESE daylight
12 Aug - 21:46:35 10° WSW 21:52:47 28° S 21:59:11 10° SE daylight
12 Aug - 23:41:00 10° WSW 23:46:05 19° SSW 23:51:14 10° SSE daylight
